H1 CPF 2 NER 2021 5 1 9 121 01 glonass134 H2 1407501 9134 40315 2021 5 1 0 0 0 2021 5 4 23 45 0 900 1 1 0 0 0 1 H9 10 0 59335 0.00000 0 21527872.569 12705238.266 -5247374.513 10 0 59335 900.00000 0 21961227.467 12877256.753 -2103871.183 10 0 59335 1800.00000 0 22071218.885 12819552.594 1080328.528 10 0 59335 2700.00000 0 21829069.928 12577447.646 4243634.551 10 0 59335 3600.00000 0 21217613.047 12202041.561 7324882.994 10 0 59335 4500.00000 0 20232149.572 11747858.333 10264504.443 10 0 59335 5400.00000 0 18880807.381 11270363.236 13005660.898 10 0 59335 6300.00000 0 17184381.285 10823453.762 15495330.647 10 0 59335 7200.00000 0 15175662.019 10457029.080 17685321.304 10 0 59335 8100.00000 0 12898280.470 10214739.293 19533192.679 10 0 59335 9000.00000 0 10405113.348 10132008.326 21003072.704 10 0 59335 9900.00000 0 7756314.547 10234413.184 22066351.347 10 0 59335 10800.00000 0 5017051.520 10536487.853 22702239.557 10 0 59335 11700.00000 0 2255038.251 11041002.857 22898182.379 10 0 59335 12600.00000 0 -462034.970 11738752.152 22650117.722 10 0 59335 13500.00000 0 -3069070.243 12608858.202 21962574.767 10 0 59335 14400.00000 0 -5506023.988 13619584.808 20848608.646 10 0 59335 15300.00000 0 -7720160.615 14729625.953 19329570.870 10 0 59335 16200.00000 0 -9668004.429 15889818.911 17434717.965 10 0 59335 17100.00000 0 -11316908.236 17045211.599 15200663.833 10 0 59335 18000.00000 0 -12646172.357 18137398.575 12670684.670 10 0 59335 18900.00000 0 -13647666.416 19107027.978 9893888.398 10 0 59335 19800.00000 0 -14325926.904 19896373.571 6924263.745 10 0 59335 20700.00000 0 -14697725.671 20451862.374 3819627.149 10 0 59335 21600.00000 0 -14791127.225 20726449.521 640488.265 10 0 59335 22500.00000 0 -14644074.842 20681737.834 -2551142.928 10 0 59335 23400.00000 0 -14302566.007 20289750.150 -5692982.582 10 0 59335 24300.00000 0 -13818495.809 19534277.171 -8723707.252 10 0 59335 25200.00000 0 -13247261.450 18411741.768 -11584169.833 10 0 59335 26100.00000 0 -12645231.499 16931541.725 -14218571.314 10 0 59335 27000.00000 0 -12067189.340 15115855.473 -16575563.688 10 0 59335 27900.00000 0 -11563861.154 12998918.603 -18609261.069 10 0 59335 28800.00000 0 -11179634.759 10625801.902 -20280138.346 10 0 59335 29700.00000 0 -10950566.929 8050742.817 -21555799.512 10 0 59335 30600.00000 0 -10902763.925 5335101.183 -22411601.006 10 0 59335 31500.00000 0 -11051203.421 2545025.728 -22831118.613 10 0 59335 32400.00000 0 -11399046.767 -251070.478 -22806450.070 10 0 59335 33300.00000 0 -11937469.344 -2985119.985 -22338348.978 10 0 59335 34200.00000 0 -12646014.583 -5591987.716 -21436188.993 10 0 59335 35100.00000 0 -13493455.129 -8011927.636 -20117760.660 10 0 59335 36000.00000 0 -14439123.345 -10192808.524 -18408906.308 10 0 59335 36900.00000 0 -15434653.855 -12092018.132 -16343001.409 10 0 59335 37800.00000 0 -16426063.949 -13677968.931 -13960293.530 10 0 59335 38700.00000 0 -17356083.831 -14931145.482 -11307112.365 10 0 59335 39600.00000 0 -18166638.719 -15844652.561 -8434966.684 10 0 59335 40500.00000 0 -18801378.809 -16424244.012 -5399545.809 10 0 59335 41400.00000 0 -19208151.478 -16687833.675 -2259644.764 10 0 59335 42300.00000 0 -19341312.759 -16664510.978 923966.363 10 0 59335 43200.00000 0 -19163782.012 -16393104.083 4089707.684 10 0 59335 44100.00000 0 -18648754.420 -15920351.828 7176367.681 10 0 59335 45000.00000 0 -17781000.201 -15298761.579 10124272.460 10 0 59335 45900.00000 0 -16557696.370 -14584242.756 12876424.684 10 0 59335 46800.00000 0 -14988756.062 -13833614.754 15379591.437 10 0 59335 47700.00000 0 -13096640.921 -13102092.965 17585321.203 10 0 59335 48600.00000 0 -10915663.096 -12440857.364 19450871.561 10 0 59335 49500.00000 0 -8490804.058 -11894804.697 20940030.727 10 0 59335 50400.00000 0 -5876097.202 -11500577.844 22023817.792 10 0 59335 51300.00000 0 -3132638.903 -11284954.682 22681048.593 10 0 59335 52200.00000 0 -326307.946 -11263664.222 22898756.239 10 0 59335 53100.00000 0 2474714.462 -11440680.472 22672457.650 10 0 59335 54000.00000 0 5202523.494 -11808024.952 22006259.984 10 0 59335 54900.00000 0 7792063.088 -12346087.959 20912803.425 10 0 59335 55800.00000 0 10183586.192 -13024457.135 19413039.670 10 0 59335 56700.00000 0 12324901.184 -13803220.647 17535848.425 10 0 59335 57600.00000 0 14173310.903 -14634692.087 15317497.263 10 0 59335 58500.00000 0 15697162.749 -15465485.965 12800953.528 10 0 59335 59400.00000 0 16876944.188 -16238857.178 10035060.086 10 0 59335 60300.00000 0 17705876.706 -16897205.872 7073589.899 10 0 59335 61200.00000 0 18189982.241 -17384641.214 3974197.479 10 0 59335 62100.00000 0 18347618.652 -17649494.304 797287.870 10 0 59335 63000.00000 0 18208503.588 -17646671.927 -2395173.955 10 0 59335 63900.00000 0 17812268.307 -17339749.212 -5540888.490 10 0 59335 64800.00000 0 17206603.567 -16702710.149 -8578456.216 10 0 59335 65700.00000 0 16445077.540 -15721260.003 -11448595.085 10 0 59335 66600.00000 0 15584719.996 -14393652.164 -14095315.069 10 0 59335 67500.00000 0 14683477.147 -12730993.081 -16467025.056 10 0 59335 68400.00000 0 13797646.893 -10757011.534 -18517549.037 10 0 59335 69300.00000 0 12979404.737 -8507301.742 -20207030.750 10 0 59335 70200.00000 0 12274526.239 -6028072.386 -21502708.810 10 0 59335 71100.00000 0 11720402.826 -3374454.582 -22379547.460 10 0 59335 72000.00000 0 11344434.665 -608440.529 -22820711.341 10 0 59335 72900.00000 0 11162867.625 2203460.320 -22817876.265 10 0 59335 73800.00000 0 11180122.009 4992749.280 -22371371.390 10 0 59335 74700.00000 0 11388639.574 7691545.112 -21490151.659 10 0 59335 75600.00000 0 11769253.324 10235161.281 -20191602.667 10 0 59335 76500.00000 0 12292062.467 12564547.557 -18501183.253 10 0 59335 77400.00000 0 12917773.907 14628495.839 -16451914.092 10 0 59335 78300.00000 0 13599452.310 16385520.470 -14083723.264 10 0 59335 79200.00000 0 14284604.015 17805337.196 -11442662.240 10 0 59335 80100.00000 0 14917506.515 18869881.686 -8580007.953 10 0 59335 81000.00000 0 15441685.402 19573827.863 -5551268.545 10 0 59335 81900.00000 0 15802434.819 19924586.918 -2415111.843 10 0 59335 82800.00000 0 15949276.097 19941789.270 767762.972 10 0 59335 83700.00000 0 15838251.957 19656272.942 3935789.332 10 0 59335 84600.00000 0 15433960.723 19108621.946 7027711.259 10 0 59335 85500.00000 0 14711245.822 18347316.544 9983753.471 10 0 59336 0.00000 0 13656470.162 17426572.969 12746762.181 10 0 59336 900.00000 0 12268321.456 16403962.757 15263296.136 10 0 59336 1800.00000 0 10558115.551 15337910.321 17484647.186 10 0 59336 2700.00000 0 8549581.837 14285173.166 19367772.974 10 0 59336 3600.00000 0 6278139.980 13298408.296 20876124.058 10 0 59336 4500.00000 0 3789694.622 12423926.384 21980350.437 10 0 59336 5400.00000 0 1138996.132 11699726.627 22658874.312 10 0 59336 6300.00000 0 -1612367.467 11153894.380 22898317.995 10 0 59336 7200.00000 0 -4398266.675 10803428.828 22693778.173 10 0 59336 8100.00000 0 -7150522.054 10653550.569 22048940.292 10 0 59336 9000.00000 0 -9801489.906 10697519.309 20976029.422 10 0 59336 9900.00000 0 -12286636.150 10916970.940 19495596.773 10 0 59336 10800.00000 0 -14546992.354 11282761.581 17636144.054 10 0 59336 11700.00000 0 -16531391.925 11756284.842 15433590.858 10 0 59336 12600.00000 0 -18198392.732 12291208.284 12930593.610 10 0 59336 13500.00000 0 -19517804.974 12835556.875 10175727.710 10 0 59336 14400.00000 0 -20471759.182 13334055.812 7222547.691 10 0 59336 15300.00000 0 -21055268.244 13730633.284 4128543.303 10 0 59336 16200.00000 0 -21276258.794 13970976.189 954012.027 10 0 59336 17100.00000 0 -21155069.980 14005028.789 -2239129.166 10 0 59336 18000.00000 0 -20723440.594 13789326.243 -5388568.149 10 0 59336 18900.00000 0 -20023027.823 13289061.673 -8432832.341 10 0 59336 19800.00000 0 -19103521.342 12479796.700 -11312507.697 10 0 59336 20700.00000 0 -18020434.050 11348740.837 -13971415.994 10 0 59336 21600.00000 0 -16832664.809 9895543.814 -16357725.637 10 0 59336 22500.00000 0 -15599938.169 8132566.067 -18424972.845 10 0 59336 23400.00000 0 -14380231.136 6084615.373 -20132972.221 10 0 59336 24300.00000 0 -13227297.025 3788160.556 -21448598.642 10 0 59336 25200.00000 0 -12188391.693 1290055.577 -22346425.383 10 0 59336 26100.00000 0 -11302298.186 -1354171.856 -22809206.750 10 0 59336 27000.00000 0 -10597732.352 -4082394.870 -22828197.012 10 0 59336 27900.00000 0 -10092195.281 -6828238.029 -22403300.853 10 0 59336 28800.00000 0 -9791319.030 -9523605.479 -21543054.067 10 0 59336 29700.00000 0 -9688730.919 -12101281.465 -20264436.477 10 0 59336 30600.00000 0 -9766439.728 -14497495.567 -18592522.258 10 0 59336 31500.00000 0 -9995725.267 -16654346.892 -16559975.803 10 0 59336 32400.00000 0 -10338491.774 -18521988.023 -14206403.983 10 0 59336 33300.00000 0 -10749026.545 -20060479.781 -11577578.116 10 0 59336 34200.00000 0 -11176088.597 -21241241.797 -8724541.252 10 0 59336 35100.00000 0 -11565238.770 -22048040.874 -5702618.219 10 0 59336 36000.00000 0 -11861313.033 -22477478.279 -2570347.464 10 0 59336 36900.00000 0 -12010935.154 -22538957.793 611644.958 10 0 59336 37800.00000 0 -11964963.555 -22254137.677 3781808.067 10 0 59336 38700.00000 0 -11680770.138 -21655890.848 6878843.728 10 0 59336 39600.00000 0 -11124256.003 -20786817.557 9842877.626 10 0 59336 40500.00000 0 -10271519.878 -19697373.053 12616602.027 10 0 59336 41400.00000 0 -9110109.400 -18443688.286 15146369.503 10 0 59336 42300.00000 0 -7639802.490 -17085174.063 17383217.681 10 0 59336 43200.00000 0 -5872885.199 -15682007.775 19283806.492 10 0 59336 44100.00000 0 -3833912.845 -14292606.503 20811250.851 10 0 59336 45000.00000 0 -1558962.392 -12971190.890 21935833.459 10 0 59336 45900.00000 0 905595.386 -11765540.472 22635584.416 10 0 59336 46800.00000 0 3504755.725 -10715033.520 22896716.483 10 0 59336 47700.00000 0 6176905.571 -9849053.022 22713907.067 10 0 59336 48600.00000 0 8856133.829 -9185825.631 22090420.573 10 0 59336 49500.00000 0 11474732.698 -8731742.841 21038067.333 10 0 59336 50400.00000 0 13965787.998 -8481193.935 19576998.163 10 0 59336 51300.00000 0 16265752.056 -8416919.069 17735336.550 10 0 59336 52200.00000 0 18316892.588 -8510869.110 15548653.548 10 0 59336 53100.00000 0 20069515.194 -8725537.406 13059293.729 10 0 59336 54000.00000 0 21483865.862 -9015708.334 10315563.676 10 0 59336 54900.00000 0 22531632.658 -9330549.312 7370797.698 10 0 59336 55800.00000 0 23196982.107 -9615957.653 4282318.546 10 0 59336 56700.00000 0 23477085.386 -9817062.091 1110313.487 10 0 59336 57600.00000 0 23382111.032 -9880771.462 -2083351.509 10 0 59336 58500.00000 0 22934683.836 -9758260.445 -5236354.914 10 0 59336 59400.00000 0 22168832.691 -9407284.586 -8287154.440 10 0 59336 60300.00000 0 21128472.433 -8794223.894 -11176207.393 10 0 59336 61200.00000 0 19865484.950 -7895766.034 -13847150.609 10 0 59336 62100.00000 0 18437482.238 -6700155.785 -16247915.098 10 0 59336 63000.00000 0 16905347.669 -5207956.283 -18331752.157 10 0 59336 63900.00000 0 15330661.076 -3432288.926 -20058149.846 10 0 59336 64800.00000 0 13773117.764 -1398541.341 -21393621.580 10 0 59336 65700.00000 0 12288051.199 856444.312 -22312351.607 10 0 59336 66600.00000 0 10924164.094 3285668.155 -22796685.479 10 0 59336 67500.00000 0 9721562.930 5833699.596 -22837457.096 10 0 59336 68400.00000 0 8710177.391 8438761.716 -22434147.444 10 0 59336 69300.00000 0 7908629.391 11035085.392 -21594873.507 10 0 59336 70200.00000 0 7323596.871 13555434.858 -20336209.261 10 0 59336 71100.00000 0 6949696.478 15933699.684 -18682843.722 10 0 59336 72000.00000 0 6769887.391 18107445.831 -16667084.085 10 0 59336 72900.00000 0 6756376.740 20020320.756 -14328214.680 10 0 59336 73800.00000 0 6871986.278 21624213.979 -11711724.939 10 0 59336 74700.00000 0 7071921.081 22881084.948 -8868421.895 10 0 59336 75600.00000 0 7305864.551 23764384.151 -5853444.576 10 0 59336 76500.00000 0 7520310.862 24260010.336 -2725199.227 10 0 59336 77400.00000 0 7661036.481 24366765.911 455764.274 10 0 59336 78300.00000 0 7675606.969 24096293.294 3627913.757 10 0 59336 79200.00000 0 7515814.080 23472496.261 6729912.221 10 0 59336 80100.00000 0 7139941.288 22530471.343 9701789.583 10 0 59336 81000.00000 0 6514763.092 21314994.302 12486087.260 10 0 59336 81900.00000 0 5617194.437 19878624.720 15028954.744 10 0 59336 82800.00000 0 4435521.010 18279507.198 17281178.179 10 0 59336 83700.00000 0 2970158.229 16578959.914 19199122.295 10 0 59336 84600.00000 0 1233905.937 14838949.810 20745568.634 10 0 59336 85500.00000 0 -748313.614 13119558.381 21890434.551 10 0 59337 0.00000 0 -2940225.896 11476542.348 22611359.661 10 0 59337 900.00000 0 -5295453.413 9959090.001 22894148.418 10 0 59337 1800.00000 0 -7759194.150 8607865.473 22733059.766 10 0 59337 2700.00000 0 -10270263.682 7453423.498 22130937.395 10 0 59337 3600.00000 0 -12763417.649 6515059.473 21099176.723 10 0 59337 4500.00000 0 -15171860.736 5800144.792 19657527.450 10 0 59337 5400.00000 0 -17429839.218 5303975.641 17833733.585 10 0 59337 6300.00000 0 -19475210.012 5010142.920 15663015.879 10 0 59337 7200.00000 0 -21251879.055 4891408.912 13187404.818 10 0 59337 8100.00000 0 -22712006.559 4911054.718 10454935.567 10 0 59337 9000.00000 0 -23817885.668 5024642.185 7518719.329 10 0 59337 9900.00000 0 -24543414.095 5182115.898 4435908.779 10 0 59337 10800.00000 0 -24875095.315 5330155.666 1266577.809 10 0 59337 11700.00000 0 -24812525.629 5414678.530 -1927461.813 10 0 59337 12600.00000 0 -24368345.405 5383382.390 -5083882.335 10 0 59337 13500.00000 0 -23567655.934 5188221.074 -8141074.876 10 0 59337 14400.00000 0 -22446926.560 4787703.339 -11039371.109 10 0 59337 15300.00000 0 -21052438.822 4148915.859 -13722225.791 10 0 59337 16200.00000 0 -19438334.541 3249182.219 -16137335.170 10 0 59337 17100.00000 0 -17664351.701 2077285.814 -18237667.956 10 0 59337 18000.00000 0 -15793345.320 634203.703 -19982387.617 10 0 59337 18900.00000 0 -13888699.281 -1066680.330 -21337647.614 10 0 59337 19800.00000 0 -12011739.202 -2999892.712 -22277244.189 10 0 59337 20700.00000 0 -10219255.771 -5128703.399 -22783114.635 10 0 59337 21600.00000 0 -8561242.424 -7406440.090 -22845672.502 10 0 59337 22500.00000 0 -7078941.462 -9778227.654 -22463974.610 10 0 59337 23400.00000 0 -5803278.998 -12183079.306 -21645718.263 10 0 59337 24300.00000 0 -4753752.145 -14556251.791 -20407070.339 10 0 59337 25200.00000 0 -3937812.404 -16831766.197 -18772333.146 10 0 59337 26100.00000 0 -3350768.296 -18944989.516 -16773454.891 10 0 59337 27000.00000 0 -2976208.340 -20835170.088 -14449395.396 10 0 59337 27900.00000 0 -2786923.917 -22447822.400 -11845360.126 10 0 59337 28800.00000 0 -2746290.925 -23736863.275 -9011917.963 10 0 59337 29700.00000 0 -2810050.311 -24666412.126 -6004019.977 10 0 59337 30600.00000 0 -2928411.293 -25212182.023 -2879938.084 10 0 59337 31500.00000 0 -3048388.142 -25362405.334 299856.138 10 0 59337 32400.00000 0 -3116271.995 -25118256.922 3473851.422 10 0 59337 33300.00000 0 -3080133.912 -24493758.575 6580673.992 10 0 59337 34200.00000 0 -2892254.386 -23515169.516 9560260.082 10 0 59337 35100.00000 0 -2511377.744 -22219888.888 12355002.348 10 0 59337 36000.00000 0 -1904697.134 -20654915.838 14910849.269 10 0 59337 36900.00000 0 -1049486.992 -18874930.856 17178337.487 10 0 59337 37800.00000 0 65685.737 -16940077.294 19113538.419 10 0 59337 38700.00000 0 1440223.226 -14913534.095 20678901.927 10 0 59337 39600.00000 0 3061263.509 -12858979.302 21843981.512 10 0 59337 40500.00000 0 4903964.145 -10838048.373 22586027.548 10 0 59337 41400.00000 0 6932293.513 -8907891.637 22890437.136 10 0 59337 42300.00000 0 9100299.559 -7118931.532 22751051.442 10 0 59337 43200.00000 0 11353806.176 -5512912.257 22170293.883 10 0 59337 44100.00000 0 13632469.434 -4121322.907 21159145.134 10 0 59337 45000.00000 0 15872110.493 -2964260.125 19736953.693 10 0 59337 45900.00000 0 18007229.967 -2049778.408 17931083.760 10 0 59337 46800.00000 0 19973600.126 -1373756.134 15776405.172 10 0 59337 47700.00000 0 21710827.050 -920283.952 13314633.442 10 0 59337 48600.00000 0 23164775.302 -662560.072 10593531.096 10 0 59337 49500.00000 0 24289752.502 -564255.357 7665984.666 10 0 59337 50400.00000 0 25050360.547 -581290.746 4588974.820 10 0 59337 51300.00000 0 25422933.897 -663951.451 1422459.784 10 0 59337 52200.00000 0 25396502.506 -759247.335 -1771805.469 10 0 59337 53100.00000 0 24973237.244 -813417.825 -4931489.792 10 0 59337 54000.00000 0 24168357.831 -774473.001 -7994920.668 10 0 59337 54900.00000 0 23009506.620 -594660.625 -10902307.132 10 0 59337 55800.00000 0 21535614.742 -232752.015 -13596924.779 10 0 59337 56700.00000 0 19795309.128 343952.544 -16026237.882 10 0 59337 57600.00000 0 17844928.738 1157985.796 -18142935.166 10 0 59337 58500.00000 0 15746235.039 2220513.739 -19905857.901 10 0 59337 59400.00000 0 13563914.571 3530625.744 -21280801.758 10 0 59337 60300.00000 0 11362979.799 5075144.930 -22241176.901 10 0 59337 61200.00000 0 9206178.271 6828966.611 -22768514.051 10 0 59337 62100.00000 0 7151518.911 8755910.152 -22852807.782 10 0 59337 63000.00000 0 5250018.540 10810047.745 -22492691.811 10 0 59337 63900.00000 0 3543761.784 12937453.641 -21695444.443 10 0 59337 64800.00000 0 2064353.537 15078299.965 -20476825.749 10 0 59337 65700.00000 0 831826.217 17169211.115 -18860751.189 10 0 59337 66600.00000 0 -145955.323 19145778.260 -16878809.408 10 0 59337 67500.00000 0 -873369.430 20945129.308 -14569634.700 10 0 59337 68400.00000 0 -1366593.677 22508447.826 -11978147.115 10 0 59337 69300.00000 0 -1652662.674 23783336.800 -9154675.509 10 0 59337 70200.00000 0 -1768069.526 24725929.989 -6153980.737 10 0 59337 71100.00000 0 -1756971.537 25302664.273 -3034197.780 10 0 59337 72000.00000 0 -1669076.708 25491640.513 144282.976 10 0 59337 72900.00000 0 -1557300.563 25283517.611 3319974.274 10 0 59337 73800.00000 0 -1475291.960 24681903.602 6431468.804 10 0 59337 74700.00000 0 -1474931.631 23703228.341 9418612.413 10 0 59337 75600.00000 0 -1603908.122 22376103.445 12223652.257 10 0 59337 76500.00000 0 -1903472.473 20740196.098 14792338.962 10 0 59337 77400.00000 0 -2406465.474 18844663.030 17074962.684 10 0 59337 78300.00000 0 -3135700.224 16746208.831 19027304.328 10 0 59337 79200.00000 0 -4102768.194 14506847.928 20611484.634 10 0 59337 80100.00000 0 -5307319.731 12191461.669 21796695.513 10 0 59337 81000.00000 0 -6736850.693 9865250.295 22559800.011 10 0 59337 81900.00000 0 -8367006.304 7591183.946 22885789.402 10 0 59337 82800.00000 0 -10162392.065 5427557.279 22768088.146 10 0 59337 83700.00000 0 -12077860.762 3425748.219 22208699.942 10 0 59337 84600.00000 0 -14060224.804 1628273.450 21218190.717 10 0 59337 85500.00000 0 -16050325.028 67221.541 19815507.195 10 0 59338 0.00000 0 -17985371.916 -1236870.713 18027632.651 10 0 59338 900.00000 0 -19801463.003 -2275650.994 15889084.181 10 0 59338 1800.00000 0 -21436172.100 -3053066.374 13441260.137 10 0 59338 2700.00000 0 -22831101.478 -3584953.743 10731647.717 10 0 59338 3600.00000 0 -23934289.972 -3898123.614 7812905.757 10 0 59338 4500.00000 0 -24702373.704 -4028974.580 4741839.654 10 0 59338 5400.00000 0 -25102407.076 -4021697.651 1578288.560 10 0 59338 6300.00000 0 -25113265.198 -3926147.083 -1616052.807 10 0 59338 7200.00000 0 -24726566.615 -3795469.251 -4778853.363 10 0 59338 8100.00000 0 -23947075.822 -3683592.002 -7848380.341 10 0 59338 9000.00000 0 -22792567.373 -3642683.274 -10764723.402 10 0 59338 9900.00000 0 -21293156.863 -3720689.153 -13470982.071 10 0 59338 10800.00000 0 -19490127.123 -3959058.216 -15914391.486 10 0 59338 11700.00000 0 -17434299.780 -4390750.693 -18047362.891 10 0 59338 12600.00000 0 -15184021.915 -5038618.400 -19828417.434 10 0 59338 13500.00000 0 -12802853.779 -5914225.095 -21222994.573 10 0 59338 14400.00000 0 -10357055.906 -7017157.595 -22204119.396 10 0 59338 15300.00000 0 -7912982.030 -8334856.665 -22752916.449 10 0 59338 16200.00000 0 -5534487.456 -9842974.335 -22858961.151 10 0 59338 17100.00000 0 -3280461.091 -11506241.825 -22520463.386 10 0 59338 18000.00000 0 -1202583.486 -13279810.695 -21744281.266 10 0 59338 18900.00000 0 656597.090 -15111010.062 -20545766.464 10 0 59338 19800.00000 0 2265192.475 -16941445.595 -18948445.690 10 0 59338 20700.00000 0 3603045.159 -18709351.909 -16983545.885 10 0 59338 21600.00000 0 4662299.929 -20352099.946 -14689373.510 10 0 59338 22500.00000 0 5447455.852 -21808754.823 -12110560.778 10 0 59338 23400.00000 0 5974899.393 -23022577.871 -9297194.044 10 0 59338 24300.00000 0 6271940.977 -23943369.328 -6303841.444 10 0 59338 25200.00000 0 6375397.655 -24529554.992 -3188498.532 10 0 59338 26100.00000 0 6329782.982 -24749930.917 -11472.057 10 0 59338 27000.00000 0 6185181.242 -24584994.523 3165777.124 10 0 59338 27900.00000 0 5994895.822 -24027807.595 6281810.467 10 0 59338 28800.00000 0 5812970.534 -23084355.892 9276385.637 10 0 59338 29700.00000 0 5691687.686 -21773390.721 12091606.374 10 0 59338 30600.00000 0 5679147.466 -20125758.937 14673027.384 10 0 59338 31500.00000 0 5817029.669 -18183248.692 16970694.075 10 0 59338 32400.00000 0 6138631.341 -15996997.851 18940098.353 10 0 59338 33300.00000 0 6667262.598 -13625529.745 20543033.092 10 0 59338 34200.00000 0 7415068.273 -11132496.097 21748329.561 10 0 59338 35100.00000 0 8382325.789 -8584218.901 22532464.127 10 0 59338 36000.00000 0 9557250.272 -6047131.294 22880022.580 10 0 59338 36900.00000 0 10916317.172 -3585221.927 22784012.707 10 0 59338 37800.00000 0 12425091.464 -1257587.508 22246018.258 10 0 59338 38700.00000 0 14039531.537 883805.890 21276189.956 10 0 59338 39600.00000 0 15707715.889 2796060.062 19893072.076 10 0 59338 40500.00000 0 17371922.859 4446899.821 18123266.010 10 0 59338 41400.00000 0 18970978.239 5815780.809 16000935.285 10 0 59338 42300.00000 0 20442773.541 6894502.886 13567159.774 10 0 59338 43200.00000 0 21726849.705 7687302.612 10869149.976 10 0 59338 44100.00000 0 22766937.291 8210420.202 7959335.425 10 0 59338 45000.00000 0 23513345.107 8491158.652 4894344.438 10 0 59338 45900.00000 0 23925094.938 8566474.701 1733895.066 10 0 59338 46800.00000 0 23971710.289 8481161.656 -1460380.449 10 0 59338 47700.00000 0 23634581.429 8285702.069 -4626153.427 10 0 59338 48600.00000 0 22907847.112 8033882.836 -7701633.279 10 0 59338 49500.00000 0 21798754.073 7780275.943 -10626792.697 10 0 59338 50400.00000 0 20327478.090 7577693.949 -13344557.479 10 0 59338 51300.00000 0 18526413.680 7474730.499 -15801935.843 10 0 59338 52200.00000 0 16438962.549 7513492.245 -17951063.616 10 0 59338 53100.00000 0 14117872.518 7727620.030 -19750143.741 10 0 59338 54000.00000 0 11623197.753 8140684.285 -21164261.224 10 0 59338 54900.00000 0 9019967.045 8765023.133 -22166057.696 10 0 59338 55800.00000 0 6375658.928 9601072.221 -22736252.996 10 0 59338 56700.00000 0 3757589.944 10637214.075 -22864004.672 10 0 59338 57600.00000 0 1230325.315 11850152.417 -22547099.819 10 0 59338 58500.00000 0 -1146780.285 13205794.536 -21791977.106 10 0 59338 59400.00000 0 -3321810.518 14660603.481 -20613580.211 10 0 59338 60300.00000 0 -5252192.682 16163362.255 -19035047.100 10 0 59338 61200.00000 0 -6906203.452 17657275.160 -17087242.609 10 0 59338 62100.00000 0 -8264015.112 19082317.758 -14808144.546 10 0 59338 63000.00000 0 -9318241.713 20377736.912 -12242096.069 10 0 59338 63900.00000 0 -10073965.360 21484596.485 -9438939.435 10 0 59338 64800.00000 0 -10548244.490 22348262.775 -6453048.134 10 0 59338 65700.00000 0 -10769127.276 22920726.565 -3342276.067 10 0 59338 66600.00000 0 -10774213.497 23162665.643 -166843.857 10 0 59338 67500.00000 0 -10608826.703 23045162.614 3011816.743 10 0 59338 68400.00000 0 -10323874.210 22551007.087 6132238.831 10 0 59338 69300.00000 0 -9973485.072 21675528.554 9134094.885 10 0 59338 70200.00000 0 -9612525.015 20426925.471 11959348.289 10 0 59338 71100.00000 0 -9294092.187 18826076.691 14553360.892 10 0 59338 72000.00000 0 -9067098.133 16905842.474 16865936.372 10 0 59338 72900.00000 0 -8974034.877 14709883.059 18852280.537 10 0 59338 73800.00000 0 -9049021.303 12291042.294 20473861.119 10 0 59338 74700.00000 0 -9316210.692 9709361.610 21699151.230 10 0 59338 75600.00000 0 -9788626.567 7029804.602 22504242.727 10 0 59338 76500.00000 0 -10467476.637 4319784.371 22873317.702 10 0 59338 77400.00000 0 -11341975.141 1646594.210 22798968.628 10 0 59338 78300.00000 0 -12389683.083 -925153.664 22282360.149 10 0 59338 79200.00000 0 -13577354.562 -3335976.377 21333228.076 10 0 59338 80100.00000 0 -14862256.222 -5533754.799 19969713.952 10 0 59338 81000.00000 0 -16193906.989 -7475661.449 18218036.458 10 0 59338 81900.00000 0 -17516167.179 -9129701.468 16112004.008 10 0 59338 82800.00000 0 -18769590.756 -10475801.640 13692376.076 10 0 59338 83700.00000 0 -19893942.632 -11506401.170 11006084.008 10 0 59338 84600.00000 0 -20830775.066 -12226518.578 8105325.217 10 0 59338 85500.00000 0 -21525953.714 -12653291.152 5046547.815 99